Location: Caltech
(34.1382°N, 118.1253°W)
Time: 20:43:22
(UTC-07:00)

RS-15 - Visible Passes

Search period start: 17 October 2017 00:00
Search period end: 27 October 2017 00:00
Orbit: 1884 x 2161 km, 64.8° (Epoch: 17 October)

Date Brightness Start Highest point End Pass type
(mag) Time Alt. Az. Time Alt. Az. Time Alt. Az.
17 Oct 9.9 00:33:43 15° NE 00:33:43 15° NE 00:35:18 10° NE visible
17 Oct 8.9 02:41:29 39° N 02:41:29 39° N 02:48:33 10° NNE visible
17 Oct 9.3 04:49:15 17° NW 04:52:17 19° NNW 05:00:15 10° NNE visible
18 Oct 9.1 02:06:52 34° NNE 02:06:52 34° NNE 02:12:34 10° NNE visible
18 Oct 9.2 04:14:38 23° NW 04:15:10 23° NW 04:24:18 10° NNE visible
18 Oct 9.8 06:30:24 10° NNW 06:34:42 12° N 06:38:57 10° NNE visible
19 Oct 9.4 01:32:14 27° NNE 01:32:14 27° NNE 01:36:30 10° NNE visible
19 Oct 9.1 03:40:00 28° NNW 03:40:00 28° NNW 03:48:24 10° NNE visible
19 Oct 9.7 05:52:36 10° NNW 05:57:03 12° N 06:01:28 10° NNE visible
20 Oct 9.7 00:57:35 20° NE 00:57:35 20° NE 01:00:20 10° NNE visible
20 Oct 9.1 03:05:21 31° NNW 03:05:21 31° NNW 03:12:31 10° NNE visible
20 Oct 9.7 05:14:07 10° NW 05:19:27 13° NNW 05:24:43 10° NNE visible
21 Oct 9.9 00:22:55 14° NE 00:22:55 14° NE 00:24:02 10° NE visible
21 Oct 9.2 02:30:40 30° N 02:30:40 30° N 02:36:37 10° NNE visible
21 Oct 9.6 04:38:26 14° NW 04:41:56 15° NNW 04:48:26 10° NNE visible
22 Oct 9.4 01:55:59 27° NNE 01:55:59 27° NNE 02:00:41 10° NNE visible
22 Oct 9.4 04:03:45 18° NNW 04:04:37 18° NNW 04:12:23 10° NNE visible
22 Oct 9.8 06:19:37 10° NNW 06:24:41 13° NNE 06:29:41 10° NE visible
23 Oct 9.6 01:21:17 23° NNE 01:21:17 23° NNE 01:24:42 10° NNE visible
23 Oct 9.4 03:29:03 22° NNW 03:29:03 22° NNW 03:36:26 10° NNE visible
23 Oct 9.8 05:42:45 10° NNW 05:47:05 12° N 05:51:22 10° NNE visible
24 Oct 9.8 00:46:35 17° NNE 00:46:35 17° NNE 00:48:39 10° NNE visible
24 Oct 9.4 02:54:20 24° NNW 02:54:20 24° NNW 03:00:31 10° NNE visible
24 Oct 9.8 05:05:04 10° NNW 05:09:26 12° N 05:13:45 10° NNE visible
25 Oct 10.0 00:11:52 12° NNE 00:11:52 12° NNE 00:12:30 10° NNE visible
25 Oct 9.5 02:19:37 24° N 02:19:37 24° N 02:24:38 10° NNE visible
25 Oct 9.7 04:27:22 11° NW 04:31:49 13° NNW 04:36:55 10° NNE visible
25 Oct 9.8 06:44:12 10° NNW 06:51:49 18° NNE 06:59:12 10° ENE visible
26 Oct 9.6 01:44:53 22° N 01:44:53 22° N 01:48:44 10° NNE visible
26 Oct 9.6 03:52:39 15° NNW 03:54:18 15° NNW 04:00:35 10° NNE visible
26 Oct 9.8 06:08:07 10° NNW 06:14:32 15° NNE 06:20:45 10° NE visible
